Location: *
(39.6167°S, 171.5333°W)
Time: 06:16:48
(UTC+00:00)

Cosmos 1763 Rocket - Pass Details

Date: 13 May 2021
Orbit: 733 x 780 km, 74.0° (Epoch: 16 June)

Event Time Altitude Azimuth Distance (km) Brightness Sun altitude
Rises 17:47:34 0° 206° (SSW) 3,291 6.4 -7.1°
Reaches altitude 10° 17:50:04 10° 212° (SSW) 2,351 5.6 -6.6°
Maximum altitude 17:55:07 45° 282° (WNW) 1,056 3.9 -5.7°
Drops below altitude 10° 18:00:04 10° 354° (N) 2,295 6.2 -4.8°
Sets 18:02:29 0° 360° (N) 3,204 7.0 -4.4°
